M0ZPG Weather Reports


time (UTC)temp
F
wind
direction
speed
knots
gust
knots
rain 1hr
in
rain 24hr
in
rain mn
in
humidity
%
barometer
mb
20260904062706 69 188 2.6 8.7 0.00 0.00 0.00 84 1009.7
20260904061806 69 223 2.6 10.4 0.00 0.00 0.00 84 1009.8
20260904060905 69 232 3.5 12.2 0.00 0.00 0.00 85 1010.2
20260904060003 68 209 3.5 13.9 0.00 0.00 0.00 85 1010.4
20260904055403 68 203 2.6 13.9 0.00 0.00 0.00 86 1010.2
20260904054503 68 247 3.5 12.2 0.00 0.00 0.00 86 1010.2
20260904053813 68 234 2.6 12.2 0.00 0.00 0.00 86 1010.1
20260904052703 68 225 2.6 8.7 0.00 0.00 0.00 86 1010.2
20260904051803 68 212 2.6 9.6 0.00 0.00 0.00 86 1009.7
20260904050903 69 205 3.5 8.7 0.00 0.00 0.00 86 1010.0
20260904050003 69 216 3.5 10.4 0.00 0.00 0.00 85 1010.2
20260904045409 69 210 2.6 10.4 0.00 0.00 0.00 85 1010.5
20260904044503 69 180 2.6 8.7 0.00 0.00 0.00 85 1010.7
20260904043605 69 218 2.6 10.4 0.00 0.00 0.00 85 1010.6
20260904042703 69 226 3.5 8.7 0.00 0.00 0.00 85 1010.7
20260904041805 69 212 2.6 10.4 0.00 0.00 0.00 84 1010.9
20260904041116 69 216 2.6 11.3 0.00 0.00 0.00 85 1010.9
20260904040218 69 238 2.6 9.6 0.00 0.00 0.00 85 1010.9
20260904035403 69 246 2.6 12.2 0.00 0.00 0.00 85 1011.0
20260904034505 69 206 1.7 7.0 0.00 0.00 0.00 84 1011.0
20260904033820 69 208 2.6 8.7 0.00 0.00 0.00 84 1011.0
20260904032703 69 197 2.6 11.3 0.00 0.00 0.00 84 1011.3
20260904031805 69 180 2.6 10.4 0.00 0.00 0.00 84 1011.1
20260904030905 69 188 3.5 13.0 0.00 0.00 0.00 83 1011.1
20260904030003 69 210 2.6 12.2 0.00 0.00 0.00 83 1011.6
20260904025403 69 211 2.6 11.3 0.00 0.00 0.00 83 1011.7
20260904024718 69 224 1.7 7.0 0.00 0.00 0.00 83 1011.8
20260904023603 69 210 1.7 9.6 0.00 0.00 0.00 83 1011.8
20260904022705 69 230 1.7 6.1 0.00 0.00 0.00 83 1011.8
20260904021803 69 218 1.7 8.7 0.00 0.00 0.00 82 1011.9
20260904020906 69 212 1.7 6.1 0.00 0.00 0.00 82 1012.1
20260904020003 69 203 2.6 10.4 0.00 0.00 0.00 82 1012.1
20260904015403 69 208 2.6 7.0 0.00 0.00 0.00 82 1012.1
20260904014505 69 228 2.6 8.7 0.00 0.00 0.00 82 1012.2
20260904013816 69 194 2.6 8.7 0.00 0.00 0.00 82 1012.4
20260904012703 69 228 2.6 11.3 0.00 0.00 0.00 82 1012.5
20260904011805 69 206 2.6 8.7 0.00 0.00 0.00 82 1012.5
20260904010905 69 192 2.6 7.8 0.00 0.00 0.00 82 1012.5
20260904010003 69 237 3.5 10.4 0.00 0.00 0.00 82 1012.6
20260904005404 69 240 2.6 10.4 0.00 0.00 0.00 83 1012.8
20260904004503 68 214 2.6 11.3 0.00 0.00 0.00 83 1013.0
20260904003605 68 209 2.6 10.4 0.00 0.00 0.00 83 1013.1
20260904002703 68 206 2.6 9.6 0.00 0.00 0.00 84 1013.2
20260904001804 68 192 1.7 7.8 0.00 0.00 0.00 84 1013.4
20260904000906 68 190 1.7 4.3 0.00 0.00 0.00 84 1013.5
20260904000005 68 230 2.6 8.7 0.00 0.00 0.00 84 1013.7
20260903235403 68 247 2.6 7.8 0.00 0.00 0.00 84 1013.8
20260903234503 67 253 2.6 11.3 0.00 0.00 0.00 84 1013.8
20260903233603 68 227 1.7 7.8 0.00 0.00 0.00 84 1014.0
20260903232705 68 196 1.7 7.0 0.00 0.00 0.00 84 1014.1
20260903232017 68 242 0.9 7.0 0.00 0.00 0.00 84 1014.2
20260903230904 68 226 1.7 6.1 0.00 0.00 0.00 83 1014.2
20260903230005 68 212 1.7 7.0 0.00 0.00 0.00 83 1014.4
20260903225403 68 229 1.7 7.0 0.00 0.00 0.00 83 1014.4
20260903224505 68 226 1.7 7.0 0.00 0.00 0.00 84 1014.2
20260903223813 68 221 1.7 7.0 0.00 0.00 0.00 84 1014.3
20260903222915 68 229 1.7 7.8 0.00 0.00 0.00 84 1014.4
20260903221806 69 227 1.7 9.6 0.00 0.00 0.00 83 1014.6
20260903220905 69 225 1.7 6.1 0.00 0.00 0.00 83 1014.8
20260903220003 69 217 2.6 9.6 0.00 0.00 0.00 83 1014.9
20260903215405 69 227 2.6 9.6 0.00 0.00 0.00 83 1015.0
20260903214716 69 214 2.6 8.7 0.00 0.00 0.00 83 1015.1
20260903212916 69 240 1.7 7.8 0.00 0.00 0.00 83 1015.3
20260903212018 70 211 1.7 7.8 0.00 0.00 0.00 83 1015.1
20260903210903 70 236 1.7 6.1 0.00 0.00 0.00 83 1015.3
20260903210218 70 230 1.7 6.1 0.00 0.00 0.00 83 1015.3
20260903205403 70 217 2.6 9.6 0.00 0.00 0.00 83 1015.4
20260903204517 70 220 1.7 7.0 0.00 0.00 0.00 83 1015.4
20260903203819 70 236 1.7 8.7 0.00 0.00 0.00 83 1015.4
20260903201808 70 215 1.7 6.1 0.00 0.00 0.00 83 1015.3
20260903200903 70 210 2.6 8.7 0.00 0.00 0.00 83 1015.4
20260903200003 70 244 1.7 6.1 0.00 0.00 0.00 83 1015.3
20260903195403 70 228 1.7 6.1 0.00 0.00 0.00 82 1015.3
20260903194505 70 187 1.7 4.3 0.00 0.00 0.00 82 1015.4
20260903193604 70 165 1.7 7.8 0.00 0.00 0.00 81 1015.4
20260903192703 71 189 1.7 7.0 0.00 0.00 0.00 80 1015.5
20260903191806 71 224 1.7 8.7 0.00 0.00 0.00 79 1015.5
20260903190903 72 212 1.7 6.1 0.00 0.00 0.00 78 1015.5
20260903190005 72 200 1.7 7.8 0.00 0.00 0.00 78 1015.5
20260903185404 72 178 1.7 6.1 0.00 0.00 0.00 77 1015.4
20260903184505 73 206 2.6 7.8 0.00 0.00 0.00 77 1015.4
20260903183605 73 235 2.6 10.4 0.00 0.00 0.00 76 1015.3
20260903182704 73 211 2.6 10.4 0.00 0.00 0.00 76 1015.3
20260903181803 74 219 2.6 9.6 0.00 0.00 0.00 75 1015.3
20260903180008 74 216 2.6 7.0 0.00 0.00 0.00 74 1015.5
20260903175405 74 226 2.6 7.8 0.00 0.00 0.00 74 1015.5
20260903174504 75 198 1.7 7.8 0.00 0.00 0.00 73 1015.6
20260903173605 75 242 1.7 8.7 0.00 0.00 0.00 73 1015.6
20260903172703 76 204 3.5 13.0 0.00 0.00 0.00 72 1015.5
20260903171806 76 237 2.6 9.6 0.00 0.00 0.00 72 1015.4
20260903170904 76 166 2.6 7.0 0.00 0.00 0.00 72 1015.4
20260903170004 76 225 2.6 9.6 0.00 0.00 0.00 71 1015.6
20260903165403 76 218 2.6 10.4 0.00 0.00 0.00 71 1015.5
20260903164505 77 216 1.7 7.0 0.00 0.00 0.00 70 1015.4
20260903163603 77 225 2.6 8.7 0.00 0.00 0.00 70 1015.5
20260903162704 77 167 2.6 6.1 0.00 0.00 0.00 70 1015.4
20260903161803 77 218 2.6 12.2 0.00 0.00 0.00 69 1015.5
20260903160905 78 191 2.6 6.1 0.00 0.00 0.00 69 1015.4
20260903160003 78 233 2.6 10.4 0.00 0.00 0.00 68 1015.4
20260903155406 79 226 1.7 10.4 0.00 0.00 0.00 66 1015.6
20260903154505 78 228 2.6 7.0 0.00 0.00 0.00 67 1015.8
20260903153606 78 233 2.6 12.2 0.00 0.00 0.00 67 1015.8
20260903152705 79 245 1.7 5.2 0.00 0.00 0.00 67 1015.8
20260903151806 78 217 1.7 7.8 0.00 0.00 0.00 66 1015.9
20260903150905 78 185 1.7 7.0 0.00 0.00 0.00 69 1016.0
20260903150005 78 236 1.7 7.0 0.00 0.00 0.00 67 1016.0
20260903145403 78 231 2.6 7.8 0.00 0.00 0.00 65 1016.2
20260903144504 78 240 2.6 9.6 0.00 0.00 0.00 64 1015.9
20260903143605 79 246 2.6 9.6 0.00 0.00 0.00 63 1016.1
20260903142915 80 252 2.6 7.0 0.00 0.00 0.00 62 1016.2
20260903142017 80 242 2.6 7.0 0.00 0.00 0.00 60 1016.2
20260903140906 80 241 2.6 10.4 0.00 0.00 0.00 59 1016.2
20260903140003 80 255 1.7 10.4 0.00 0.00 0.00 59 1016.4
20260903135405 79 254 2.6 7.8 0.00 0.00 0.00 60 1016.5
20260903134503 80 253 2.6 7.0 0.00 0.00 0.00 59 1016.7
20260903133813 80 254 1.7 7.0 0.00 0.00 0.00 59 1016.6
20260903132916 80 243 1.7 11.3 0.00 0.00 0.00 61 1016.8
20260903131805 79 250 1.7 7.0 0.00 0.00 0.00 62 1016.8
20260903130906 79 251 2.6 7.0 0.00 0.00 0.00 62 1016.7
20260903130005 78 258 2.6 7.0 0.00 0.00 0.00 63 1016.6
20260903125403 77 252 2.6 9.6 0.00 0.00 0.00 66 1016.7
20260903124503 77 248 1.7 7.0 0.00 0.00 0.00 65 1016.9
20260903123819 77 255 1.7 7.0 0.00 0.00 0.00 64 1016.8
20260903122703 77 249 1.7 8.7 0.00 0.00 0.00 64 1016.9
20260903122019 78 303 0.9 4.3 0.00 0.00 0.00 63 1016.9
20260903120903 77 254 1.7 7.0 0.00 0.00 0.00 63 1016.8
20260903120004 77 259 1.7 5.2 0.00 0.00 0.00 65 1016.7
20260903115403 77 236 1.7 6.1 0.00 0.00 0.00 66 1016.8
20260903113814 76 244 1.7 6.1 0.00 0.00 0.00 68 1016.9
20260903112705 75 250 1.7 6.1 0.00 0.00 0.00 69 1016.9
20260903111805 75 230 1.7 7.8 0.00 0.00 0.00 70 1017.0
20260903110905 75 221 1.7 7.0 0.00 0.00 0.00 70 1017.0
20260903110005 75 256 0.9 4.3 0.00 0.00 0.00 73 1017.0
20260903105403 74 255 1.7 4.3 0.00 0.00 0.00 72 1017.2
20260903104505 74 260 1.7 6.1 0.00 0.00 0.00 72 1017.2
20260903103603 74 253 1.7 6.1 0.00 0.00 0.00 71 1017.2
20260903102703 74 253 0.9 3.5 0.00 0.00 0.00 72 1017.2
20260903102015 73 251 0.9 7.0 0.00 0.00 0.00 73 1017.3
20260903100903 72 245 1.7 6.1 0.00 0.00 0.00 74 1017.1
20260903100017 71 256 0.9 3.5 0.00 0.00 0.00 77 1017.1
20260903095403 71 255 0.9 6.1 0.00 0.00 0.00 77 1017.3
20260903094505 70 255 0.9 6.1 0.00 0.00 0.00 77 1017.4
20260903093605 70 275 0.9 4.3 0.00 0.00 0.00 78 1017.4
20260903092705 70 250 0.9 4.3 0.00 0.00 0.00 78 1017.3
20260903091803 70 268 0.9 5.2 0.00 0.00 0.00 78 1017.4
20260903091113 70 250 0.9 4.3 0.00 0.00 0.00 78 1017.4
20260903090006 70 277 1.7 7.0 0.00 0.00 0.00 79 1017.1
20260903085403 70 262 1.7 6.1 0.00 0.00 0.00 80 1017.1
20260903084506 70 243 1.7 6.1 0.00 0.00 0.00 80 1017.0
20260903083605 69 248 0.9 6.1 0.00 0.00 0.00 81 1016.9
20260903082703 69 229 2.6 7.8 0.00 0.00 0.00 81 1016.6
20260903081805 69 253 1.7 10.4 0.00 0.00 0.00 82 1016.4
20260903080903 68 242 1.7 7.0 0.00 0.00 0.00 83 1016.2
20260903080005 68 235 2.6 7.8 0.00 0.00 0.00 83 1016.1
20260903075405 68 250 1.7 7.0 0.00 0.00 0.00 83 1016.1
20260903074505 68 243 1.7 7.0 0.00 0.00 0.00 84 1016.0
20260903073603 68 228 1.7 7.0 0.00 0.00 0.00 85 1016.0
20260903072705 67 238 1.7 9.6 0.00 0.00 0.00 85 1015.7
20260903071803 67 221 1.7 6.1 0.00 0.00 0.00 85 1015.4
20260903070905 67 196 0.9 6.1 0.00 0.00 0.00 86 1015.9
20260903070003 67 190 0.9 3.5 0.00 0.00 0.00 86 1016.1
20260903065405 67 227 0.9 3.5 0.00 0.00 0.00 86 1016.1
20260903064505 67 229 0.9 6.1 0.00 0.00 0.00 86 1016.0
20260903063603 67 227 0.9 3.5 0.00 0.00 0.00 86 1016.2